Location: Unspecified
(0.0000°N, 0.0000°E)
Time: 10:36:34
(UTC+00:00)

NIMBUS 2 DEB - Pass Details

Date: 25 December 2025
Orbit: 956 x 1029 km, 100.4° (Epoch: 17 January)

Event Time Altitude Azimuth Distance (km) Brightness Sun altitude
Rises 04:15:25 0° 198° (SSW) 3,662 ? -23.9°
Reaches altitude 10° 04:18:47 10° 217° (SW) 2,725 ? -23.1°
Enters shadow 04:20:29 14° 233° (SW) 2,415 ? -22.7°
